• In Österreich
  • Länderverzeichnis
  • Für 7 Tage
  • Wassertemperatur
  • Satellitenkarten
  • Wetterkarte
  • News
  • Widgets
  • user-avatar
    Anmelden

    Stündliche Wetter Sankt Pölten

    Heute, 12 Dezember, Dienstag

    Zeit Temperatur Niederschläge Wind Luftdruck Luftfeuchtigkeit
    00:00 +7°C° 0 mm 4 m/S 718 mmHg 87%
    01:00 +7°C° 0 mm 4 m/S 719 mmHg 88%
    02:00 +7°C° 0 mm 3 m/S 719 mmHg 89%
    03:00 +5°C° 0 mm 3 m/S 720 mmHg 89%
    04:00 +5°C° 0 mm 3 m/S 721 mmHg 90%
    05:00 +4°C° 0,2 mm 3 m/S 722 mmHg 90%
    06:00 +4°C° 0,2 mm 3 m/S 723 mmHg 90%
    07:00 +4°C° 0,2 mm 3 m/S 725 mmHg 89%
    08:00 +4°C° 0,1 mm 3 m/S 726 mmHg 86%
    09:00 +5°C° 0,1 mm 3 m/S 727 mmHg 84%
    10:00 +5°C° 0,1 mm 4 m/S 728 mmHg 81%
    11:00 +5°C° 0 mm 4 m/S 729 mmHg 79%
    12:00 +5°C° 0 mm 4 m/S 730 mmHg 77%
    13:00 +5°C° 0 mm 5 m/S 730 mmHg 75%
    14:00 +4°C° 0 mm 4 m/S 731 mmHg 76%
    15:00 +3°C° 0 mm 4 m/S 732 mmHg 78%
    16:00 +1°C° 0 mm 4 m/S 733 mmHg 80%
    17:00 +1°C° 0,1 mm 4 m/S 733 mmHg 80%
    18:00 +1°C° 0,1 mm 4 m/S 734 mmHg 80%
    19:00 0°C° 0,1 mm 4 m/S 735 mmHg 81%
    20:00 0°C° 0,1 mm 4 m/S 735 mmHg 81%
    21:00 +1°C° 0,1 mm 3 m/S 736 mmHg 81%
    22:00 +1°C° 0,1 mm 3 m/S 737 mmHg 81%
    23:00 +1°C° 0,2 mm 3 m/S 737 mmHg 82%

    Morgen, 13 Dezember, Mittwoch

    Zeit Temperatur Niederschläge Wind Luftdruck Luftfeuchtigkeit
    00:00 +1°C° 0,2 mm 3 m/S 738 mmHg 83%
    01:00 +2°C° 0,2 mm 2 m/S 738 mmHg 84%
    02:00 +1°C° 0,1 mm 2 m/S 738 mmHg 85%
    03:00 +1°C° 0,1 mm 2 m/S 738 mmHg 86%
    04:00 +1°C° 0,1 mm 2 m/S 738 mmHg 86%
    05:00 +1°C° 0 mm 2 m/S 739 mmHg 87%
    06:00 +1°C° 0 mm 2 m/S 739 mmHg 87%
    07:00 +1°C° 0 mm 2 m/S 739 mmHg 88%
    08:00 +1°C° 0 mm 2 m/S 739 mmHg 84%
    09:00 +2°C° 0 mm 2 m/S 739 mmHg 81%
    10:00 +2°C° 0 mm 2 m/S 739 mmHg 77%
    11:00 +3°C° 0 mm 2 m/S 738 mmHg 73%
    12:00 +4°C° 0 mm 2 m/S 737 mmHg 70%
    13:00 +4°C° 0 mm 2 m/S 737 mmHg 66%
    14:00 +3°C° 0 mm 2 m/S 736 mmHg 70%
    15:00 +3°C° 0 mm 1 m/S 736 mmHg 75%
    16:00 +2°C° 0 mm 1 m/S 735 mmHg 80%
    17:00 +2°C° 0 mm 1 m/S 735 mmHg 82%
    18:00 +1°C° 0 mm 2 m/S 734 mmHg 84%
    19:00 -1°C° 0 mm 2 m/S 734 mmHg 86%
    20:00 -1°C° 0 mm 2 m/S 733 mmHg 85%
    21:00 +1°C° 0 mm 2 m/S 733 mmHg 84%
    22:00 +1°C° 0 mm 2 m/S 732 mmHg 83%
    23:00 +1°C° 0 mm 2 m/S 731 mmHg 82%

    übermorgen, 14 Dezember, Donnerstag

    Zeit Temperatur Niederschläge Wind Luftdruck Luftfeuchtigkeit
    00:00 +1°C° 0 mm 2 m/S 731 mmHg 81%
    01:00 +2°C° 0 mm 1 m/S 730 mmHg 80%
    02:00 +2°C° 0 mm 1 m/S 729 mmHg 79%
    03:00 +3°C° 0 mm 1 m/S 728 mmHg 78%
    04:00 +3°C° 0 mm 1 m/S 728 mmHg 77%
    05:00 +3°C° 0 mm 1 m/S 728 mmHg 77%
    06:00 +3°C° 0 mm 1 m/S 727 mmHg 76%
    07:00 +3°C° 0 mm 1 m/S 727 mmHg 76%
    08:00 +3°C° 0,1 mm 2 m/S 727 mmHg 75%
    09:00 +4°C° 0,1 mm 2 m/S 728 mmHg 74%
    10:00 +5°C° 0,1 mm 2 m/S 728 mmHg 74%
    11:00 +4°C° 0,1 mm 3 m/S 728 mmHg 74%
    12:00 +5°C° 0,1 mm 3 m/S 728 mmHg 74%
    13:00 +5°C° 0,1 mm 3 m/S 728 mmHg 74%
    14:00 +4°C° 0,2 mm 3 m/S 728 mmHg 78%
    15:00 +5°C° 0,2 mm 2 m/S 728 mmHg 83%
    16:00 +5°C° 0,2 mm 1 m/S 728 mmHg 88%
    17:00 +5°C° 0,1 mm 1 m/S 727 mmHg 89%
    18:00 +4°C° 0,1 mm 2 m/S 727 mmHg 89%
    19:00 +3°C° 0,1 mm 2 m/S 727 mmHg 90%
    20:00 +3°C° 0,2 mm 2 m/S 726 mmHg 89%
    21:00 +4°C° 0,2 mm 2 m/S 726 mmHg 88%
    22:00 +4°C° 0,2 mm 2 m/S 725 mmHg 87%
    23:00 +3°C° 0 mm 3 m/S 724 mmHg 87%

    15 Dezember, Freitag

    Zeit Temperatur Niederschläge Wind Luftdruck Luftfeuchtigkeit
    00:00 +2°C° 0 mm 3 m/S 723 mmHg 87%
    01:00 +2°C° 0 mm 3 m/S 723 mmHg 87%
    02:00 +3°C° 0,4 mm 4 m/S 723 mmHg 85%
    03:00 +3°C° 0,4 mm 4 m/S 723 mmHg 84%
    04:00 +2°C° 0,4 mm 5 m/S 724 mmHg 82%
    05:00 +1°C° 0 mm 4 m/S 724 mmHg 81%
    06:00 +1°C° 0 mm 4 m/S 725 mmHg 81%
    07:00 +1°C° 0 mm 4 m/S 725 mmHg 80%
    08:00 +2°C° 0 mm 3 m/S 726 mmHg 79%
    09:00 +2°C° 0 mm 3 m/S 726 mmHg 77%
    10:00 +4°C° 0 mm 2 m/S 726 mmHg 76%
    11:00 +4°C° 0 mm 2 m/S 726 mmHg 75%
    12:00 +5°C° 0 mm 2 m/S 726 mmHg 73%
    13:00 +6°C° 0 mm 1 m/S 726 mmHg 72%
    14:00 +5°C° 0 mm 1 m/S 726 mmHg 75%
    15:00 +5°C° 0 mm 1 m/S 726 mmHg 78%
    16:00 +4°C° 0 mm 1 m/S 726 mmHg 82%
    17:00 +4°C° 0 mm 1 m/S 726 mmHg 82%
    18:00 +4°C° 0 mm 1 m/S 726 mmHg 83%
    19:00 +3°C° 0 mm 1 m/S 726 mmHg 83%
    20:00 +3°C° 0 mm 1 m/S 726 mmHg 83%
    21:00 +3°C° 0 mm 1 m/S 726 mmHg 83%
    22:00 +3°C° 0 mm 1 m/S 726 mmHg 83%
    23:00 +3°C° 0 mm 1 m/S 726 mmHg 82%

    16 Dezember, Samstag

    Zeit Temperatur Niederschläge Wind Luftdruck Luftfeuchtigkeit
    00:00 +3°C° 0 mm 1 m/S 726 mmHg 81%
    01:00 +3°C° 0 mm 1 m/S 726 mmHg 79%
    02:00 +2°C° 0 mm 2 m/S 726 mmHg 79%
    03:00 +2°C° 0 mm 2 m/S 726 mmHg 80%
    04:00 +2°C° 0 mm 2 m/S 726 mmHg 80%
    05:00 +1°C° 0,1 mm 3 m/S 727 mmHg 81%
    06:00 +1°C° 0,1 mm 3 m/S 727 mmHg 83%
    07:00 +1°C° 0,1 mm 3 m/S 728 mmHg 85%
    08:00 0°C° 0,1 mm 4 m/S 728 mmHg 83%
    09:00 0°C° 0,1 mm 5 m/S 729 mmHg 82%
    10:00 +1°C° 0,1 mm 6 m/S 729 mmHg 80%
    11:00 +1°C° 0,1 mm 6 m/S 730 mmHg 77%
    12:00 +1°C° 0,1 mm 6 m/S 730 mmHg 74%
    13:00 +1°C° 0,1 mm 6 m/S 730 mmHg 71%
    14:00 0°C° 0 mm 5 m/S 731 mmHg 74%
    15:00 0°C° 0 mm 4 m/S 731 mmHg 77%
    16:00 0°C° 0 mm 3 m/S 732 mmHg 80%
    17:00 0°C° 0 mm 3 m/S 732 mmHg 83%
    18:00 -1°C° 0 mm 3 m/S 733 mmHg 86%
    19:00 -1°C° 0 mm 2 m/S 733 mmHg 88%
    20:00 -1°C° 0 mm 2 m/S 734 mmHg 88%
    21:00 -1°C° 0 mm 2 m/S 734 mmHg 88%
    22:00 +1°C° 0 mm 2 m/S 734 mmHg 87%
    23:00 -1°C° 0,1 mm 2 m/S 735 mmHg 88%

    17 Dezember, Sonntag

    Zeit Temperatur Niederschläge Wind Luftdruck Luftfeuchtigkeit
    00:00 -1°C° 0,1 mm 2 m/S 735 mmHg 88%
    01:00 -1°C° 0,1 mm 2 m/S 735 mmHg 88%
    02:00 -1°C° 0,1 mm 2 m/S 735 mmHg 88%
    03:00 -1°C° 0,1 mm 2 m/S 735 mmHg 88%
    04:00 -1°C° 0,1 mm 2 m/S 735 mmHg 88%
    05:00 -1°C° 0 mm 2 m/S 735 mmHg 88%
    06:00 -1°C° 0 mm 2 m/S 736 mmHg 87%
    07:00 -2°C° 0 mm 2 m/S 736 mmHg 86%
    08:00 -1°C° 0,1 mm 3 m/S 736 mmHg 84%
    09:00 0°C° 0,1 mm 3 m/S 736 mmHg 81%
    10:00 0°C° 0,1 mm 3 m/S 737 mmHg 78%
    11:00 +1°C° 0,1 mm 3 m/S 737 mmHg 77%
    12:00 +1°C° 0,1 mm 3 m/S 737 mmHg 76%
    13:00 +1°C° 0,1 mm 3 m/S 737 mmHg 75%
    14:00 +1°C° 0,1 mm 3 m/S 737 mmHg 78%
    15:00 0°C° 0,1 mm 3 m/S 737 mmHg 81%
    16:00 -1°C° 0,1 mm 3 m/S 738 mmHg 84%
    17:00 -1°C° 0 mm 3 m/S 738 mmHg 85%
    18:00 -1°C° 0 mm 3 m/S 739 mmHg 86%
    19:00 -2°C° 0 mm 3 m/S 739 mmHg 88%
    20:00 -2°C° 0 mm 3 m/S 739 mmHg 88%
    21:00 -2°C° 0 mm 2 m/S 740 mmHg 89%
    22:00 -2°C° 0 mm 2 m/S 740 mmHg 89%
    23:00 -2°C° 0 mm 2 m/S 740 mmHg 89%
    Mehr zeigen